Location: Brantley
(31.5822°N, 86.2569°W)
Time: 23:55:23
(UTC+00:00)

Vanguard 3 - Pass Details

Date: 19 February 2026
Orbit: 507 x 3205 km, 33.4° (Epoch: 8 March)

Event Time Altitude Azimuth Distance (km) Brightness Sun altitude
Rises 22:45:13 0° 264° (W) 5,523 13.3 9.4°
Reaches altitude 10° 22:49:35 10° 265° (W) 4,068 12.8 8.6°
Maximum altitude 22:59:26 80° 352° (N) 1,113 8.0 6.6°
Drops below altitude 10° 23:04:56 10° 80° (E) 2,347 8.9 5.4°
Sets 23:06:52 0° 82° (E) 3,081 9.5 5.0°
